Visibility
15.0 15.0 15.0 15.0 15.0 7.3 15.0 15.0 15.0 15.0 11.2 14.2 15.0 15.0 13.4 15.0 15.0 15.0 15.0 15.0 15.0 15.0 15.0 15.0 15.0 15.0 15.0 10.5 13.7 15.0 15.0 15.0 7.5
15.0 15.0 15.0 15.0 15.0 15.0 15.0 15.0 15.0 15.0 15.0 15.0 14.4 15.0 15.0 15.0 15.0 15.0 15.0 15.0 15.0 15.0 15.0 15.0 15.0 15.0 15.0 12.3 15.0 15.0 15.0 14.3 15.0
15.0 15.0 15.0 15.0 15.0 15.0 15.0 15.0 15.0 15.0 15.0 15.0 15.0 15.0 15.0 15.0 15.0 15.0 15.0 15.0 15.0 15.0 15.0 15.0 15.0 14.5 10.6 15.0 15.0 15.0 15.0 15.0 15.0
12.1 15.0 15.0 15.0 15.0 15.0 15.0 15.0 15.0 15.0 15.0 15.0 15.0 15.0 15.0 15.0 15.0 15.0 15.0 15.0 15.0 15.0 15.0 15.0 12.2 8.2 12.3 15.0 14.8 14.4 11.4 15.0 15.0
15.0 15.0 4.0 12.8 15.0 15.0 15.0 15.0 15.0 15.0 15.0 15.0 15.0 15.0 15.0 15.0 15.0 15.0 15.0 15.0 15.0 15.0 15.0 11.2 14.4 15.0 15.0 15.0 15.0 11.8 15.0 15.0 15.0
15.0 15.0 15.0 15.0 7.0 15.0 15.0 15.0 15.0 15.0 15.0 15.0 15.0 15.0 15.0 15.0 15.0 15.0 15.0 15.0 15.0 15.0 15.0 15.0 15.0 15.0 15.0 15.0 15.0 15.0 15.0 15.0 15.0
15.0 15.0 15.0 15.0 10.6 5.2 15.0 15.0 15.0 15.0 15.0 15.0 15.0 15.0 15.0 15.0 15.0 15.0 15.0 15.0 15.0 15.0 15.0 15.0 15.0 15.0 15.0 15.0 14.8 13.5 15.0 15.0 15.0
15.0 15.0 15.0 15.0 15.0 15.0 14.1 15.0 14.1 15.0 15.0 15.0 15.0 15.0 15.0 15.0 15.0 15.0 15.0 9.5 15.0 15.0 9.0 15.0 15.0 15.0 15.0 14.8 11.7 15.0 15.0 15.0 15.0
13.6 13.6 15.0 15.0 15.0 3.9 13.7 15.0 15.0 10.7 15.0 5.8 15.0 15.0 15.0 15.0 15.0 15.0 15.0 15.0 14.8 11.2 7.3 15.0 15.0 15.0 15.0 15.0 14.1 15.0 15.0 15.0 15.0
11.3 8.6 6.0 14.1 3.3 15.0 15.0 13.4 15.0 15.0 15.0 15.0 15.0 15.0 15.0 15.0 15.0 15.0 15.0 15.0 9.8 4.6 13.9 15.0 15.0 15.0 15.0 15.0 15.0 15.0 15.0 15.0 15.0
15.0 5.2 7.8 5.8 15.0 3.0 7.5 11.9 11.8 15.0 15.0 15.0 15.0 15.0 15.0 15.0 15.0 15.0 15.0 15.0 15.0 13.1 8.1 9.1 15.0 15.0 15.0 12.1 15.0 15.0 15.0 15.0 15.0
15.0 13.2 6.1 4.6 5.7 4.5 8.1 7.6 15.0 15.0 15.0 15.0 15.0 15.0 15.0 15.0 15.0 15.0 15.0 15.0 15.0 15.0 11.5 6.8 6.2 12.9 15.0 15.0 15.0 15.0 15.0 15.0 15.0
15.0 13.1 5.1 5.9 7.8 8.6 15.0 4.5 15.0 14.4 15.0 13.5 15.0 15.0 15.0 15.0 15.0 15.0 15.0 15.0 15.0 12.5 15.0 15.0 5.5 10.2 9.7 9.3 15.0 15.0 15.0 15.0 15.0
15.0 15.0 15.0 15.0 5.0 0.3 3.3 2.1 14.8 15.0 12.0 14.3 11.2 15.0 15.0 15.0 15.0 15.0 15.0 15.0 15.0 15.0 9.8 15.0 15.0 8.5 6.2 8.1 8.2 15.0 15.0 15.0 15.0
15.0 15.0 15.0 15.0 15.0 6.0 3.3 2.6 6.6 9.8 4.5 5.5 4.8 15.0 15.0 15.0 15.0 15.0 15.0 15.0 15.0 15.0 15.0 15.0 15.0 15.0 15.0 7.6 7.4 11.1 15.0 15.0 15.0
15.0 15.0 15.0 15.0 14.2 15.0 9.6 5.3 1.2 5.5 15.0 5.9 7.8 4.2 10.2 13.5 15.0 15.0 15.0 15.0 15.0 15.0 15.0 15.0 15.0 15.0 15.0 15.0 11.0 8.5 15.0 15.0 15.0
15.0 15.0 15.0 15.0 15.0 15.0 15.0 4.4 0.8 2.2 10.0 10.8 6.1 2.5 2.5 8.2 13.9 13.4 9.8 15.0 15.0 15.0 15.0 15.0 15.0 15.0 15.0 15.0 15.0 11.6 6.3 10.4 15.0
15.0 15.0 15.0 15.0 15.0 4.3 14.8 3.2 0.2 2.2 2.6 3.5 8.3 3.7 8.4 15.0 15.0 15.0 15.0 15.0 15.0 15.0 15.0 15.0 15.0 15.0 15.0 15.0 15.0 15.0 12.1 5.0 5.1
15.0 15.0 15.0 15.0 15.0 15.0 14.3 15.0 4.5 0.4 0.5 2.0 0.9 4.1 10.3 10.3 0.1 10.0 15.0 13.3 15.0 15.0 15.0 15.0 15.0 15.0 15.0 15.0 15.0 15.0 15.0 15.0 14.6
15.0 15.0 15.0 15.0 15.0 15.0 15.0 15.0 15.0 15.0 2.4 0.5 0.2 0.7 1.3 6.4 12.3 0.3 13.3 15.0 10.9 15.0 13.9 15.0 15.0 15.0 15.0 15.0 15.0 15.0 15.0 15.0 15.0